Weather History for KCRE - March, 2013

Change the Weather History Date:

Sunday, March 3, 2013

  Actual Average Record
Temperature  
Mean Temperature 42 °F 51 °F  
Max Temperature 50 °F 61 °F 76 °F (1992)
Min Temperature 34 °F 41 °F 23 °F (2009)
Degree Days  
Heating Degree Days 23 14  
Month to date heating degree days 64 42  
Since 1 July heating degree days 1845 1986  
Cooling Degree Days 0 0  
Month to date cooling degree days 0 0  
Year to date cooling degree days 2 0  
Moisture  
Dew Point 24 °F    
Average Humidity 58    
Maximum Humidity 82    
Minimum Humidity 34    
Precipitation  
Precipitation 0.00 in 0.12 in 1.41 in (2001)
Month to date precipitation 0.00 0.35  
Year to date precipitation 5.06 7.46  
Sea Level Pressure  
Sea Level Pressure 29.92 in    
Wind  
Wind Speed 6 mph (NW)    
Max Wind Speed 16 mph    
Max Gust Speed 24 mph    
Visibility 10 miles    
Events      
T = Trace of Precipitation, MM = Missing Value Source: NWS Daily Summary

Daily Weather History Graph

Daily Weather History Graph

Search for Another Location

Airport or City:

Trip Planner

Search our weather history database for the weather conditions in past years. The results will help you decide how hot, cold, wet, or windy it might be!

Date:

Astronomy

Mar. 03, 2013 Rise Set
Actual Time 6:40 AM EST 6:13 PM EST
Civil Twilight 6:15 AM EST 6:38 PM EST
Nautical Twilight 5:46 AM EST 7:07 PM EST
Astronomical Twilight 5:17 AM EST 7:36 PM EST
Moon No Moon Rise 10:12 AM EST
Length of Visible Light 12h 22m
Length of Day
11h 32m
Waning Gibbous, 64% of the Moon is Illuminated
Mar 3
Waning Gibbous
Mar 4
Last Quarter
Mar 11
New
Mar 19
First Quarter
Mar 27
Full

Hourly Weather History & Observations

Time (EST) Temp. Windchill Dew Point Humidity Pressure Visibility Wind Dir Wind Speed Gust Speed Precip Events Conditions
12:53 AM 37.9 °F - 32.0 °F 79% 29.89 in 10.0 mi Calm Calm - N/A   Overcast
1:53 AM 37.0 °F - 32.0 °F 82% 29.90 in 10.0 mi Calm Calm - N/A   Clear
2:53 AM 37.0 °F 33.3 °F 30.9 °F 79% 29.89 in 10.0 mi NNW 4.6 mph - N/A   Clear
3:53 AM 35.1 °F 31.0 °F 28.0 °F 76% 29.90 in 10.0 mi NNW 4.6 mph - N/A   Partly Cloudy
4:53 AM 35.1 °F 31.0 °F 24.1 °F 64% 29.91 in 10.0 mi North 4.6 mph - N/A   Overcast
5:53 AM 35.1 °F 31.0 °F 23.0 °F 61% 29.94 in 10.0 mi NNW 4.6 mph - N/A   Overcast
6:53 AM 35.1 °F 31.0 °F 23.0 °F 61% 29.94 in 10.0 mi NNW 4.6 mph - N/A   Overcast
7:53 AM 36.0 °F 30.3 °F 23.0 °F 59% 29.95 in 10.0 mi North 6.9 mph - N/A   Overcast
8:53 AM 39.9 °F 33.4 °F 21.0 °F 47% 29.96 in 10.0 mi North 10.4 mph - N/A   Clear
9:53 AM 42.1 °F 36.6 °F 21.0 °F 43% 29.94 in 10.0 mi North 9.2 mph 17.3 mph N/A   Clear
10:53 AM 43.0 °F 37.2 °F 21.0 °F 42% 29.94 in 10.0 mi North 10.4 mph 18.4 mph N/A   Clear
11:53 AM 46.0 °F 41.4 °F 21.9 °F 39% 29.92 in 10.0 mi NW 9.2 mph 21.9 mph N/A   Clear
12:53 PM 46.0 °F 41.4 °F 23.0 °F 40% 29.90 in 10.0 mi WNW 9.2 mph 17.3 mph N/A   Partly Cloudy
1:53 PM 48.0 °F - 21.9 °F 36% 29.88 in 10.0 mi WNW 11.5 mph 19.6 mph N/A   Partly Cloudy
2:53 PM 48.9 °F - 21.9 °F 35% 29.87 in 10.0 mi NW 10.4 mph 18.4 mph N/A   Clear
3:53 PM 48.0 °F - 21.0 °F 34% 29.87 in 10.0 mi West 5.8 mph 18.4 mph N/A   Clear
4:53 PM 48.0 °F - 21.0 °F 34% 29.88 in 10.0 mi WNW 9.2 mph - N/A   Clear
5:53 PM 46.0 °F 42.5 °F 21.9 °F 39% 29.89 in 10.0 mi WNW 6.9 mph - N/A   Clear
6:53 PM 43.0 °F - 21.9 °F 43% 29.92 in 10.0 mi Calm Calm - N/A   Clear
7:53 PM 39.0 °F 35.7 °F 28.0 °F 65% 29.95 in 10.0 mi WSW 4.6 mph - N/A   Clear
8:53 PM 37.0 °F - 26.1 °F 65% 29.97 in 10.0 mi Calm Calm - N/A   Clear
9:53 PM 37.0 °F 34.5 °F 26.1 °F 65% 29.98 in 10.0 mi WSW 3.5 mph - N/A   Clear
10:53 PM 37.0 °F 34.5 °F 25.0 °F 62% 29.98 in 10.0 mi West 3.5 mph - N/A   Clear
11:53 PM 35.1 °F 31.0 °F 25.0 °F 67% 29.98 in 10.0 mi WSW 4.6 mph - N/A   Clear